EW9204 Weather Reports


time (UTC)temp
F
wind
direction
speed
knots
gust
knots
rain 1hr
in
rain 24hr
in
rain mn
in
humidity
%
barometer
mb
20260506051016 58 148 1.7 5.2 0.00 0.00 0.00 82 1011.0
20260506050516 58 137 0.9 5.2 0.00 0.00 0.00 81 1011.1
20260506045016 58 51 0.9 4.3 0.00 0.00 0.00 79 1011.2
20260506044530 59 110 0.9 3.5 0.00 0.00 0.00 79 1011.2
20260506044020 59 132 1.7 3.5 0.00 0.00 0.00 78 1011.2
20260506043514 59 158 0.9 5.2 0.00 0.00 0.00 78 1011.3
20260506043030 59 212 0.9 5.2 0.00 0.00 0.00 77 1011.2
20260506042514 59 68 0.9 5.2 0.00 0.00 0.00 77 1011.2
20260506042017 59 137 0.0 3.5 0.00 0.00 0.00 76 1011.3
20260506041537 60 168 0.9 3.5 0.00 0.00 0.00 76 1011.2
20260506041015 60 0 0.9 3.5 0.00 0.00 0.00 75 1011.2
20260506040519 60 67 0.9 3.5 0.00 0.00 0.00 75 1011.1
20260506040035 60 178 0.9 3.5 0.00 0.00 0.00 74 1011.1
20260506035516 61 236 0.9 4.3 0.00 0.00 0.00 73 1011.2
20260506035016 61 108 0.9 4.3 0.00 0.00 0.00 73 1011.3
20260506034530 61 142 0.0 4.3 0.00 0.00 0.00 72 1011.3
20260506034014 62 165 0.9 5.2 0.00 0.00 0.00 72 1011.4
20260506033514 62 162 0.9 5.2 0.00 0.00 0.00 71 1011.3
20260506033032 62 175 1.7 5.2 0.00 0.00 0.00 70 1011.2
20260506032516 63 226 1.7 6.1 0.00 0.00 0.00 70 1011.1
20260506032016 63 175 1.7 6.1 0.00 0.00 0.00 70 1011.1
20260506031538 63 137 1.7 6.1 0.00 0.00 0.00 70 1010.9
20260506031016 63 201 0.9 6.1 0.00 0.00 0.00 69 1010.9
20260506030518 63 228 2.6 6.1 0.00 0.00 0.00 69 1010.9
20260506030036 63 173 1.7 6.1 0.00 0.00 0.00 69 1010.9
20260506025514 63 234 1.7 5.2 0.00 0.00 0.00 69 1011.1
20260506025016 64 93 2.6 10.4 0.00 0.00 0.00 68 1011.0
20260506024542 64 219 2.6 10.4 0.00 0.00 0.00 68 1011.0
20260506024014 64 182 4.3 10.4 0.00 0.00 0.00 67 1011.0
20260506023514 64 205 2.6 10.4 0.00 0.00 0.00 67 1011.1
20260506023032 65 214 2.6 10.4 0.00 0.00 0.00 66 1011.1
20260506022514 65 250 3.5 8.7 0.00 0.00 0.00 66 1011.1
20260506022016 65 178 3.5 10.4 0.00 0.00 0.00 66 1011.0
20260506021530 65 167 3.5 11.3 0.00 0.00 0.00 66 1011.0
20260506021015 65 203 5.2 11.3 0.00 0.00 0.00 66 1010.9
20260506020515 65 201 3.5 10.4 0.00 0.00 0.00 66 1011.0
20260506020032 65 225 4.3 10.4 0.00 0.00 0.00 66 1010.9
20260506015517 65 223 4.3 13.0 0.00 0.00 0.00 66 1010.8
20260506015016 65 213 5.2 13.0 0.00 0.00 0.00 66 1010.8
20260506014530 65 171 5.2 12.2 0.00 0.00 0.00 66 1010.9
20260506014015 65 226 5.2 12.2 0.00 0.00 0.00 66 1010.6
20260506013515 65 234 3.5 12.2 0.00 0.00 0.00 66 1010.7
20260506013033 65 221 5.2 13.0 0.00 0.00 0.00 66 1010.6
20260506012515 65 221 5.2 13.0 0.00 0.00 0.00 66 1010.6
20260506012017 65 175 4.3 12.2 0.00 0.00 0.00 66 1010.6
20260506011557 65 250 5.2 12.2 0.00 0.00 0.00 66 1010.6
20260506011016 65 257 4.3 12.2 0.00 0.00 0.00 66 1010.5
20260506010514 65 187 6.1 12.2 0.00 0.00 0.00 66 1010.4
20260506010031 65 119 7.0 11.3 0.00 0.00 0.00 66 1010.1
20260506005516 65 184 4.3 10.4 0.00 0.00 0.00 67 1010.2
20260506005015 65 265 3.5 13.0 0.00 0.00 0.00 67 1010.1
20260506004533 65 175 5.2 13.0 0.00 0.00 0.00 67 1010.0
20260506004017 64 190 4.3 12.2 0.00 0.00 0.00 67 1010.0
20260506003516 64 277 4.3 12.2 0.00 0.00 0.00 67 1009.9
20260506003030 64 240 3.5 12.2 0.00 0.00 0.00 67 1010.0
20260506002518 64 221 3.5 10.4 0.00 0.00 0.00 67 1009.7
20260506002016 64 218 3.5 10.4 0.00 0.00 0.00 67 1009.7
20260506001532 65 282 2.6 7.0 0.00 0.00 0.00 66 1009.7
20260506001014 65 138 1.7 7.0 0.00 0.00 0.00 66 1009.7
20260506000521 65 219 2.6 7.0 0.00 0.00 0.00 66 1009.7
20260505235514 66 265 1.7 7.0 0.00 0.00 0.00 65 1009.6
20260505235016 66 238 2.6 7.0 0.00 0.00 0.00 65 1009.6
20260505234541 66 205 1.7 7.0 0.00 0.00 0.00 64 1009.6
20260505234016 66 225 2.6 7.0 0.00 0.00 0.00 64 1009.6
20260505233516 67 211 2.6 7.8 0.00 0.00 0.00 63 1009.4
20260505233033 67 175 2.6 14.8 0.00 0.00 0.00 63 1009.2
20260505232514 67 184 4.3 14.8 0.00 0.00 0.00 62 1009.1
20260505232016 67 149 4.3 12.2 0.00 0.00 0.00 62 1009.1
20260505231533 68 237 4.3 9.6 0.00 0.00 0.00 62 1009.1
20260505231016 68 228 3.5 9.6 0.00 0.00 0.00 62 1009.0
20260505230514 68 196 5.2 10.4 0.00 0.00 0.00 61 1008.9
20260505230050 68 165 4.3 12.2 0.00 0.00 0.00 61 1008.9
20260505225520 69 0 4.3 13.0 0.00 0.00 0.00 61 1008.9
20260505225016 69 192 4.3 13.0 0.00 0.00 0.00 60 1008.9
20260505224540 69 138 3.5 9.6 0.00 0.00 0.00 60 1008.8
20260505224015 69 214 4.3 10.4 0.00 0.00 0.00 59 1008.8
20260505223514 69 139 3.5 12.2 0.00 0.00 0.00 60 1008.9
20260505223029 69 195 4.3 12.2 0.00 0.00 0.00 59 1008.8
20260505222519 69 200 3.5 12.2 0.00 0.00 0.00 59 1008.8
20260505222015 70 229 4.3 11.3 0.00 0.00 0.00 58 1008.8
20260505221532 70 229 3.5 13.9 0.00 0.00 0.00 58 1008.9
20260505221017 70 265 5.2 13.9 0.00 0.00 0.00 57 1008.9
20260505220514 70 213 4.3 10.4 0.00 0.00 0.00 56 1008.8
20260505220031 71 242 4.3 13.0 0.00 0.00 0.00 56 1008.7
20260505215516 71 225 4.3 15.6 0.00 0.00 0.00 56 1008.6
20260505215015 71 225 5.2 15.6 0.00 0.00 0.00 56 1008.6
20260505214532 71 200 5.2 14.8 0.00 0.00 0.00 55 1008.6
20260505214016 72 226 4.3 12.2 0.00 0.00 0.00 55 1008.6
20260505213515 72 68 5.2 13.0 0.00 0.00 0.00 55 1008.5
20260505213034 72 219 6.1 13.0 0.00 0.00 0.00 54 1008.7
20260505212515 73 228 4.3 12.2 0.00 0.00 0.00 53 1008.7
20260505212018 73 182 4.3 12.2 0.00 0.00 0.00 54 1008.7
20260505211533 73 193 4.3 13.0 0.00 0.00 0.00 54 1008.5
20260505211017 73 121 5.2 13.0 0.00 0.00 0.00 54 1008.4
20260505210517 73 187 5.2 13.0 0.00 0.00 0.00 54 1008.3
20260505210031 73 117 6.1 13.0 0.00 0.00 0.00 53 1008.2
20260505205515 74 141 5.2 13.9 0.00 0.00 0.00 54 1008.3
20260505205013 74 188 6.1 13.9 0.00 0.00 0.00 53 1008.4
20260505204544 74 126 4.3 12.2 0.00 0.00 0.00 53 1008.5
20260505204014 74 175 4.3 15.6 0.00 0.00 0.00 54 1008.6
20260505203516 74 236 4.3 15.6 0.00 0.00 0.00 54 1008.7
20260505203034 74 200 5.2 14.8 0.00 0.00 0.00 54 1008.9
20260505202516 73 232 6.1 16.5 0.00 0.00 0.00 54 1008.8
20260505202014 73 247 6.1 16.5 0.00 0.00 0.00 54 1008.9
20260505201531 73 144 7.0 13.9 0.00 0.00 0.00 53 1009.0
20260505201016 73 146 6.1 14.8 0.00 0.00 0.00 54 1008.9
20260505200516 73 177 6.1 18.2 0.00 0.00 0.00 54 1008.9
20260505200030 74 158 7.8 18.2 0.00 0.00 0.00 54 1008.9
20260505195514 74 238 7.8 16.5 0.00 0.00 0.00 53 1009.0
20260505195014 74 168 7.0 16.5 0.00 0.00 0.00 54 1009.0
20260505194541 74 247 7.0 16.5 0.00 0.00 0.00 53 1009.2
20260505194014 74 192 8.7 15.6 0.00 0.00 0.00 53 1009.3
20260505193514 74 194 7.0 13.9 0.00 0.00 0.00 54 1009.4
20260505193034 74 202 5.2 15.6 0.00 0.00 0.00 54 1009.3
20260505192516 74 234 6.1 17.4 0.00 0.00 0.00 54 1009.4
20260505192016 74 171 4.3 17.4 0.00 0.00 0.00 56 1009.4
20260505191530 74 194 6.1 17.4 0.00 0.00 0.00 55 1009.5
20260505191017 74 211 6.1 17.4 0.00 0.00 0.00 55 1009.5
20260505190518 74 196 7.0 17.4 0.00 0.00 0.00 53 1009.7
20260505190037 74 165 5.2 14.8 0.00 0.00 0.00 54 1009.8
20260505185516 74 196 7.0 15.6 0.00 0.00 0.00 53 1009.8
20260505185014 75 208 7.8 15.6 0.00 0.00 0.00 52 1009.9
20260505184533 75 182 6.1 13.9 0.00 0.00 0.00 52 1009.9
20260505184017 75 221 7.8 13.9 0.00 0.00 0.00 52 1010.1
20260505183516 75 149 5.2 17.4 0.00 0.00 0.00 51 1010.1
20260505183034 76 219 6.1 17.4 0.00 0.00 0.00 50 1010.1
20260505182515 76 153 8.7 16.5 0.00 0.00 0.00 49 1010.1
20260505182014 76 115 5.2 14.8 0.00 0.00 0.00 50 1010.1
20260505181536 76 211 5.2 14.8 0.00 0.00 0.00 49 1010.0
20260505181015 76 212 7.0 18.2 0.00 0.00 0.00 50 1010.1
20260505180515 77 212 6.1 18.2 0.00 0.00 0.00 49 1010.1
20260505180043 77 208 6.1 18.2 0.00 0.00 0.00 48 1010.2
20260505175515 77 216 7.8 16.5 0.00 0.00 0.00 46 1010.1
20260505175016 77 190 5.2 14.8 0.00 0.00 0.00 47 1010.2
20260505174536 77 205 5.2 17.4 0.00 0.00 0.00 49 1010.3
20260505174015 76 209 6.1 17.4 0.00 0.00 0.00 47 1010.3
20260505173514 76 162 7.0 13.9 0.00 0.00 0.00 47 1010.3
20260505173031 76 213 6.1 12.2 0.00 0.00 0.00 49 1010.4
20260505172514 76 198 5.2 13.0 0.00 0.00 0.00 48 1010.4
20260505172014 76 187 6.1 13.0 0.00 0.00 0.00 49 1010.4
20260505171529 75 217 7.0 11.3 0.00 0.00 0.00 50 1010.5
20260505171016 75 126 5.2 13.0 0.00 0.00 0.00 50 1010.5
20260505170518 75 210 5.2 18.2 0.00 0.00 0.00 51 1010.6
20260505170032 75 219 4.3 18.2 0.00 0.00 0.00 54 1010.8
20260505165515 75 0 6.1 18.2 0.00 0.00 0.00 51 1010.9
20260505165015 76 208 5.2 11.3 0.00 0.00 0.00 51 1011.0
20260505164534 76 190 4.3 13.0 0.00 0.00 0.00 51 1011.0
20260505164016 76 198 5.2 14.8 0.00 0.00 0.00 50 1011.1
20260505163519 76 208 6.1 14.8 0.00 0.00 0.00 48 1011.4
20260505163033 76 207 6.1 10.4 0.00 0.00 0.00 49 1011.4
20260505162515 76 150 2.6 8.7 0.00 0.00 0.00 49 1011.5
20260505162019 76 227 4.3 8.7 0.00 0.00 0.00 48 1011.4
20260505161532 76 238 5.2 9.6 0.00 0.00 0.00 47 1011.5
20260505161016 76 282 2.6 9.6 0.00 0.00 0.00 48 1011.6
20260505160517 75 218 5.2 14.8 0.00 0.00 0.00 48 1011.7
20260505153031 74 213 3.5 9.6 0.00 0.00 0.00 53 1012.2
20260505152518 74 205 4.3 12.2 0.00 0.00 0.00 49 1012.3
20260505152017 73 297 3.5 12.2 0.00 0.00 0.00 50 1012.3
20260505151534 73 159 5.2 12.2 0.00 0.00 0.00 51 1012.3
20260505151019 73 249 4.3 12.2 0.00 0.00 0.00 54 1012.3
20260505150516 72 175 4.3 13.9 0.00 0.00 0.00 52 1012.5
20260505140514 68 194 3.5 10.4 0.00 0.00 0.00 62 1012.7
20260505125016 62 221 1.7 7.0 0.00 0.00 0.00 74 1011.9
20260505124541 61 254 2.6 6.1 0.00 0.00 0.00 75 1011.7
20260505124016 60 190 1.7 6.1 0.00 0.00 0.00 78 1011.7
20260505123516 59 207 1.7 6.1 0.00 0.00 0.00 78 1011.8
20260505123030 59 137 2.6 6.1 0.00 0.00 0.00 81 1011.6
20260505122516 58 159 2.6 7.0 0.00 0.00 0.00 81 1011.6
20260505122014 58 225 1.7 7.0 0.00 0.00 0.00 82 1011.5
20260505121554 57 126 0.0 4.3 0.00 0.00 0.00 83 1011.3
20260505121018 57 61 1.7 5.2 0.00 0.00 0.00 83 1011.3
20260505120514 57 344 0.9 6.1 0.00 0.00 0.00 83 1011.6
20260505120030 57 168 2.6 6.1 0.00 0.00 0.00 83 1011.5
20260505115512 57 183 1.7 7.0 0.00 0.00 0.00 84 1011.7
20260505115014 57 316 0.9 7.0 0.00 0.00 0.00 82 1011.3
20260505114533 57 155 1.7 7.0 0.00 0.00 0.00 82 1011.5
20260505114016 57 298 2.6 7.0 0.00 0.00 0.00 81 1011.5
20260505113516 57 333 0.9 3.5 0.00 0.00 0.00 82 1012.0
20260505113031 56 229 0.9 3.5 0.00 0.00 0.00 84 1011.9
20260505112514 56 178 0.9 4.3 0.00 0.00 0.00 85 1011.9
20260505112014 55 205 0.9 4.3 0.00 0.00 0.00 87 1011.9
20260505111538 54 173 1.7 4.3 0.00 0.00 0.00 89 1011.9
20260505111016 53 255 0.9 4.3 0.00 0.00 0.00 92 1011.7
20260505110515 52 171 0.9 4.3 0.00 0.00 0.00 92 1011.8
20260505102014 49 0 0.0 1.7 0.00 0.00 0.00 92 1011.0
20260505101540 49 61 0.0 1.7 0.00 0.00 0.00 92 1010.8
20260505101014 49 0 0.0 1.7 0.00 0.00 0.00 92 1010.8
20260505100516 49 51 0.0 1.7 0.00 0.00 0.00 92 1010.5
20260505100041 49 316 0.0 1.7 0.00 0.00 0.00 92 1010.6
20260505095516 49 165 0.9 1.7 0.00 0.00 0.00 92 1010.4
20260505095016 49 144 0.9 1.7 0.00 0.00 0.00 91 1010.4
20260505094530 49 178 0.0 1.7 0.00 0.00 0.00 91 1010.4
20260505094015 50 238 0.0 1.7 0.00 0.00 0.00 91 1010.4
20260505093516 50 238 0.9 1.7 0.00 0.00 0.00 91 1010.3
20260505093031 50 153 0.0 1.7 0.00 0.00 0.00 92 1010.3
20260505092514 50 178 0.0 2.6 0.00 0.00 0.00 92 1010.4
20260505092014 50 178 0.0 3.5 0.00 0.00 0.00 92 1010.4
20260505091535 50 0 0.9 3.5 0.00 0.00 0.00 92 1010.4
20260505091013 49 249 0.9 1.7 0.00 0.00 0.00 92 1010.3
20260505090513 49 212 0.0 1.7 0.00 0.00 0.00 91 1010.3
20260505090034 49 0 0.0 1.7 0.00 0.00 0.00 91 1010.2
20260505085514 49 137 0.0 2.6 0.00 0.00 0.00 91 1010.4
20260505085017 49 163 0.9 2.6 0.00 0.00 0.00 91 1010.3
20260505084532 49 0 0.0 1.7 0.00 0.00 0.00 91 1010.2
20260505084013 49 0 0.0 1.7 0.00 0.00 0.00 90 1010.3
20260505083519 49 0 0.0 1.7 0.00 0.00 0.00 90 1010.3
20260505083041 49 137 0.0 1.7 0.00 0.00 0.00 90 1010.3
20260505082515 49 0 0.0 1.7 0.00 0.00 0.00 90 1010.5
20260505082016 49 0 0.0 1.7 0.00 0.00 0.00 90 1010.6
20260505081532 49 153 0.0 1.7 0.00 0.00 0.00 90 1010.5
20260505081015 49 0 0.0 1.7 0.00 0.00 0.00 89 1010.4
20260505080514 49 0 0.0 1.7 0.00 0.00 0.00 89 1010.5
20260505080043 49 137 0.0 1.7 0.00 0.00 0.00 89 1010.6
20260505075514 49 0 0.0 1.7 0.00 0.00 0.00 88 1010.5
20260505075016 50 68 0.0 1.7 0.00 0.00 0.00 88 1010.4
20260505074532 50 0 0.0 1.7 0.00 0.00 0.00 88 1010.4
20260505074016 50 93 0.0 1.7 0.00 0.00 0.00 88 1010.4
20260505073513 50 338 0.0 2.6 0.00 0.00 0.00 88 1010.3
20260505073031 50 0 0.0 2.6 0.00 0.00 0.00 88 1010.3
20260505072514 50 0 0.0 1.7 0.00 0.00 0.00 88 1010.2
20260505072015 50 76 0.0 1.7 0.00 0.00 0.00 87 1010.1
20260505071540 50 9 0.0 1.7 0.00 0.00 0.00 87 1010.3
20260505071017 50 93 0.0 1.7 0.00 0.00 0.00 86 1010.2
20260505070515 50 9 0.0 1.7 0.00 0.00 0.00 86 1010.2
20260505070031 50 0 0.0 1.7 0.00 0.00 0.00 85 1010.3
20260505065514 50 111 0.0 1.7 0.00 0.00 0.00 85 1010.3
20260505065019 50 68 0.0 2.6 0.00 0.00 0.00 84 1010.3
20260505064530 51 0 0.0 2.6 0.00 0.00 0.00 84 1010.4
20260505064015 51 76 0.0 1.7 0.00 0.00 0.00 83 1010.4
20260505063514 51 41 0.0 1.7 0.00 0.00 0.00 82 1010.4
20260505063043 51 51 0.0 1.7 0.00 0.00 0.00 82 1010.4
20260505062514 52 0 0.0 1.7 0.00 0.00 0.00 81 1010.5
20260505062021 52 115 0.0 1.7 0.00 0.00 0.00 80 1010.5
20260505061535 52 0 0.0 1.7 0.00 0.00 0.00 79 1010.6
20260505061017 53 0 0.0 1.7 0.00 0.00 0.00 78 1010.6
20260505060513 53 137 0.0 1.7 0.00 0.00 0.00 78 1010.6
20260505060032 54 0 0.0 1.7 0.00 0.00 0.00 77 1010.6